Location: Katzenstein
(51.7484°N, 10.2155°E)
Time: 09:13:12
(UTC+00:00)

Cosmos 614 Rocket - Pass Details

Date: 17 February 2020
Orbit: 733 x 764 km, 74.1° (Epoch: 09 April)

Event Time Altitude Azimuth Distance (km) Brightness Sun altitude
Rises 05:21:04 0° 211° (SSW) 3,180 6.9 -11.4°
Reaches altitude 10° 05:23:26 10° 214° (SW) 2,265 6.2 -11.0°
Maximum altitude 05:28:33 68° 298° (WNW) 816 3.9 -10.2°
Drops below altitude 10° 05:33:45 10° 21° (NNE) 2,300 6.7 -9.4°
Sets 05:36:10 0° 24° (NNE) 3,234 7.5 -9.1°
